User: anonymous   Login
Location: Cheching
(60.0667°N, 164.2167°W)
Time: 12:21:57
(UTC+00:00)
Language:

FO-99 - Orbit

View from above orbital plane
View from above orbital plane
View from above satellite
View from above satellite

Ground track
Ground track

The orbit data is extracted from the following two-line orbital elements,

1 43937U 19003F   21137.82451856  .00001957  00000-0  79052-4 0  9991
2 43937  97.1787 182.2315 0024956 119.3649 241.0087 15.25623965129590
Epoch (UTC): 17 May 2021 19:47:18
Eccentricity: 0.0024956
inclination: 97.1787°
perigee height: 472 km
apogee height: 506 km
right ascension of ascending node: 182.2315°
argument of perigee: 119.3649°
revolutions per day: 15.25623965
mean anomaly at epoch: 241.0087°
orbit number at epoch: 12959

The dashed part of the orbit path shows where the satellite is in the earth's shadow,  

DLR